This demonstration page uses our WeatherBlox Daily Observations layout. Learn more.

Left ArrowRight Arrow

39.01783, -85.05884

Hourly Observations for September 2, 2017

Temp ( °F °C ) Dew Point ( °F °C ) Humidity (%) Winds ( mph kmh ) Pressure ( in mb ) Visibility ( mi km ) Precip ( " mm )
12:52 am 00:52 Cloudy with Light Rain 54 12.2 54 12.2 100 100 NE 17 28 29.90 1013 5 8 0.03 0.76
1:52 am 01:52 Cloudy with Light Rain 55 12.8 55 12.8 100 100 NE 17 28 29.90 1012 10 16 0.02 0.51
2:52 am 02:52 Cloudy with Light Rain 55 12.8 55 12.8 100 100 NE 14 22 29.88 1012 6 10 0.04 1.02
3:52 am 03:52 Cloudy with Mist and Fog 55 12.8 55 12.8 100 100 NE 13 20 29.88 1012 6 10 0.00 0.03
4:52 am 04:52 Cloudy with Light Rain 55 12.8 55 12.8 100 100 NE 10 17 29.88 1012 6 10 0.00 0.03
5:29 am 05:29 Cloudy with Light Rain 55 12.8 55 12.8 100 100 NE 10 17 29.91 1013 3 5 0.01 0.25
5:52 am 05:52 Cloudy with Light Rain 55 12.8 55 12.8 100 100 NNE 12 19 29.90 1012 4 6 0.02 0.51
6:05 am 06:05 Cloudy with Mist and Fog 55 12.8 55 12.8 100 100 NE 10 17 29.91 1013 6 10 0.00 0.03
6:52 am 06:52 Cloudy with Mist and Fog 55 12.8 55 12.8 100 100 NNE 10 17 29.91 1013 4 6 0.00 0.03
7:52 am 07:52 Cloudy 55 12.8 55 12.8 100 100 NE 10 17 29.93 1014 7 11 0.00 0.00
7:56 am 07:56 Cloudy with Mist and Fog 55 12.8 55 12.8 100 100 NE 8 13 29.94 1014 3 4 0.00 0.00
8:38 am 08:38 Cloudy with Mist and Fog 55 12.8 55 12.8 100 100 NNE 8 13 29.94 1014 2 2 0.00 0.00
8:52 am 08:52 Cloudy with Mist and Fog 55 12.8 55 12.8 100 100 NNE 6 9 29.94 1014 1 1 0.00 0.00
9:52 am 09:52 Cloudy with Light Rain 56 13.3 56 13.3 100 100 NE 6 9 29.96 1015 1 1 0.00 0.03
10:12 am 10:12 Cloudy with Light Rain 57 13.9 57 13.9 100 100 NE 6 9 29.97 1015 2 3 0.01 0.25
10:31 am 10:31 Cloudy with Mist and Fog 57 13.9 57 13.9 100 100 NNE 5 7 29.97 1015 2 3 0.01 0.25
10:52 am 10:52 Cloudy with Mist and Fog 57 13.9 57 13.9 100 100 N 5 7 29.96 1015 5 8 0.01 0.25
11:20 am 11:20 Cloudy with Mist and Fog 58 14.4 57 13.9 97 97 Calm 29.97 1015 6 10 0.00 0.00
11:52 am 11:52 Cloudy 58 14.4 58 14.4 100 100 NNW 3 6 29.96 1015 8 13 0.00 0.00
12:52 pm 12:52 Cloudy 59 15 58 14.4 96 96 NW 5 7 29.98 1015 10 16 0.00 0.00
1:19 pm 13:19 Cloudy with Light Rain 60 15.6 59 15 96 96 Calm 30.00 1016 2 3 0.00 0.03
1:52 pm 13:52 Cloudy with Mist and Fog 60 15.6 60 15.6 100 100 W 5 7 29.98 1015 2 3 0.01 0.25
2:10 pm 14:10 Cloudy with Light Rain 60 15.6 60 15.6 100 100 W 5 7 30.00 1016 2 3 0.01 0.25
2:43 pm 14:43 Cloudy with Light Rain 60 15.6 60 15.6 100 100 WNW 8 13 30.00 1016 2 3 0.01 0.25
2:52 pm 14:52 Cloudy with Light Rain 60 15.6 60 15.6 100 100 NW 9 15 29.98 1015 2 3 0.02 0.51
2:59 pm 14:59 Cloudy with Mist and Fog 61 16.1 61 16.1 100 100 NW 8 13 30.00 1016 2 3 0.00 0.03
3:50 pm 15:50 Cloudy with Drizzle 61 16 61 16 100 100 W 3 6 30.00 1016 3 5 0.00 0.03
3:52 pm 15:52 Cloudy with Drizzle 61 16.1 60 15.6 97 97 W 3 6 29.97 1015 3 5 0.00 0.03
4:52 pm 16:52 Cloudy 61 16.1 60 15.6 97 97 W 7 11 29.97 1015 3 5 0.00 0.03
5:52 pm 17:52 Cloudy 61 16.1 60 15.6 97 97 W 9 15 29.98 1015 10 16 0.00 0.00
6:27 pm 18:27 Cloudy with Drizzle 60 15.6 60 15.6 100 100 W 6 9 30.00 1016 3 5 0.00 0.03
6:46 pm 18:46 Cloudy with Drizzle 61 16 61 16 100 100 W 3 6 30.00 1016 9 14 0.00 0.03
6:52 pm 18:52 Cloudy with Drizzle 61 16.1 61 16.1 100 100 Calm 29.99 1016 7 11 0.00 0.03
6:59 pm 18:59 Cloudy with Drizzle 61 16.1 61 16.1 100 100 WSW 5 7 30.00 1016 6 10 0.00 0.03
7:47 pm 19:47 Cloudy 61 16 61 16 100 100 SW 5 7 30.00 1016 9 14 0.00 0.03
7:52 pm 19:52 Cloudy 60 15.6 60 15.6 100 100 SSW 3 6 30.00 1016 9 14 0.00 0.03
8:26 pm 20:26 Cloudy 60 15.6 60 15.6 100 100 S 6 9 30.00 1016 8 13 0.00 0.00
8:52 pm 20:52 Cloudy 60 15.6 60 15.6 100 100 S 7 11 29.99 1016 9 14 0.00 0.00
9:52 pm 21:52 Cloudy 60 15.6 60 15.6 100 100 Calm 30.00 1016 9 14 0.00 0.00
9:57 pm 21:57 Cloudy 60 15.6 60 15.6 100 100 SSW 5 7 30.03 1017 9 14 0.00 0.00
10:52 pm 22:52 Cloudy 60 15.6 60 15.6 100 100 SW 5 7 30.02 1017 7 11 0.00 0.00
11:52 pm 23:52 Clear 58 14.4 58 14.4 100 100 SSW 7 11 30.02 1017 10 16 0.00 0.00

Powered by AerisWeather